Regional Weather Roundup
Issued by NWS

Home | Current Version | Previous Version | Text Only | Print | Product List | Glossary On
Versions: 1 2 3 4 5 6 7 8 9 10 11 12 13 14 15 16 17 18 19 20 21 22 23 24 25 26 27 28 29 30 31 32 33 34 35 36 37 38 39 40 41 42 43 44 45 46 47 48 49 50
000
ASUS44 KMEG 101510
RWRTN
TENNESSEE HOURLY STATE WEATHER ROUNDUP
NATIONAL WEATHER SERVICE MEMPHIS TN
900 AM CST SAT DEC 10 2016

TNZ002-004-019-021-049-052-054-088>092-101600-
WEST TENNESSEE

CITY           SKY/WX    TMP DP  RH WIND       PRES   REMARKS
MEMPHIS INTL   MOSUNNY   31  20  63 VRB5      30.59F WCI  26
NWS MEMPHIS      N/A     29 N/A N/A MISG        N/A
JACKSON        SUNNY     28  21  75 E5        30.60F WCI  23
DYERSBURG      SUNNY     27  19  74 SE6       30.60S WCI  20
UNION CITY     SUNNY     25  21  86 CALM      30.60S
PARIS          SUNNY     25  18  74 CALM      30.60F
HUNTINGDON     SUNNY     27  21  80 SE5       30.60F WCI  21
LEXINGTON      SUNNY     25  19  80 CALM      30.60F
$$

TNZ008-025-027-028-033-062-065-066-101600-
NORTH MIDDLE TENNESSEE

CITY           SKY/WX    TMP DP  RH WIND       PRES   REMARKS
NASHVILLE      MOSUNNY   28  21  75 CALM      30.63R
PORTLAND       SUNNY     27  19  74 CALM      30.61S
CLARKSVILLE    SUNNY     25  19  78 SE3       30.62R
SMYRNA         SUNNY     33  27  78 CALM      30.65R
GALLATIN       SUNNY     27  19  74 CALM      30.66S
CROSSVILLE     SUNNY     25  15  66 N5        30.55R WCI  19
$$

TNZ061-075-076-078-094-096-097-101600-
SOUTH MIDDLE TENNESSEE

CITY           SKY/WX    TMP DP  RH WIND       PRES   REMARKS
FAYETTEVILLE   SUNNY     28  21  74 NE5       30.58S WCI  23
TULLAHOMA      SUNNY     27  18  69 E6        30.57F WCI  20
WINCHESTER     SUNNY     27  21  80 CALM      30.59R
MCMINNVILLE    SUNNY     27  21  80 NE5         N/A  WCI  21
COLUMBIA       SUNNY     25  25 100 CALM      30.60R
SHELBYVILLE    SUNNY     27  21  80 CALM      30.61S
$$

TNZ017-018-042-046-047-101600-
NORTHEAST TENNESSEE

CITY           SKY/WX    TMP DP  RH WIND       PRES   REMARKS
TRI CITIES     MOSUNNY   23  19  85 CALM      30.56R
ELIZABETHTON   SUNNY     25  18  74 SW3       30.55S
$$

TNZ012-013-036-069-073-074-101600-
CENTRAL EAST TENNESSEE

CITY           SKY/WX    TMP DP  RH WIND       PRES   REMARKS
KNOXVILLE      SUNNY     28  19  69 CALM      30.58R
OAK RIDGE      SUNNY     27  19  72 CALM      30.61R
DOWNTOWN KNOXV SUNNY     28  23  80 CALM      30.60S
GATLINBURG     SUNNY     25  19  80 CALM      30.58F
MORRISTOWN     SUNNY     27  18  69 CALM      30.55S
JACKSBORO      SUNNY     27  21  80 CALM      30.61R
$$

TNZ083-085-099-101600-
SOUTHEAST TENNESSEE

CITY           SKY/WX    TMP DP  RH WIND       PRES   REMARKS
CHATTANOOGA    MOSUNNY   32  20  61 NE10      30.61R WCI  24
$$

SKY/WX REPORTED AS FAIR MEANS FEW OR NO CLOUDS BELOW
12 THOUSAND FEET.





USA.gov is the U.S. government's official web portal to all federal, state and local government web resources and services.